Wind_Speed
42 42 42 41 41 41 41 40 40 40 40 40 39 39 38 38 38 38 38 38 38 37 36 36 36 36 37 37 36 36 36 36 37 37 38 38 38 39 40 41 41 41 41
44 44 43 43 42 42 43 42 42 42 42 42 41 41 40 40 39 39 39 39 38 37 37 37 37 37 37 37 37 37 37 38 38 39 39 39 40 40 42 43 43 43 43
44 45 45 44 44 43 43 44 43 42 43 43 42 41 40 40 40 40 40 40 39 38 38 38 38 38 38 38 38 38 39 39 40 40 41 41 41 41 42 43 44 45 45
44 44 44 44 45 44 45 45 44 44 43 43 42 42 42 41 41 40 40 40 39 38 38 38 38 38 38 38 38 39 40 40 41 42 42 43 43 43 42 44 45 45 46
43 43 43 43 43 44 44 44 44 44 43 43 43 43 42 42 41 41 40 40 39 39 38 38 38 38 39 39 39 40 41 41 42 42 43 43 44 45 45 44 45 45 46
42 42 43 42 42 42 42 42 43 43 42 43 43 43 42 42 41 41 40 39 39 38 38 38 38 38 39 40 40 41 42 42 42 43 44 45 46 46 46 45 45 45 45
40 41 41 41 40 40 40 40 40 40 41 41 42 41 41 41 40 40 39 38 38 38 38 39 39 39 40 41 41 42 43 43 43 44 45 46 46 46 46 46 45 45 45
38 39 39 39 39 39 39 39 39 39 39 39 40 40 40 39 39 39 38 38 38 38 39 39 39 40 40 42 42 42 42 44 45 46 46 47 47 47 47 47 47 46 45
36 37 37 37 37 37 37 37 37 37 37 38 38 38 38 38 38 38 38 38 38 38 39 39 40 41 42 42 42 43 44 45 46 46 46 47 47 47 48 48 48 48 47
33 34 34 34 34 34 34 35 35 35 35 35 36 36 36 36 37 37 37 38 38 39 39 39 41 41 41 42 43 44 45 46 46 47 47 47 47 48 48 48 49 49 49
31 31 31 31 32 32 32 32 32 33 33 33 34 35 35 36 36 37 37 37 38 39 39 40 41 41 42 43 43 44 45 46 47 47 48 48 48 48 49 49 50 51 51
29 29 29 30 30 30 31 31 31 31 32 32 33 33 34 34 35 35 36 37 38 39 39 40 41 42 43 43 44 45 46 47 48 48 48 48 49 50 50 51 51 52 54
27 27 27 28 28 29 29 30 30 31 31 31 31 32 32 33 34 35 36 37 38 38 40 41 41 42 43 44 45 46 47 48 48 48 49 50 50 51 52 53 54 55 57
26 26 26 27 28 28 29 29 29 29 30 30 31 32 32 33 34 35 36 37 38 39 40 41 42 43 44 45 46 47 47 48 48 49 50 51 52 53 54 55 57 58 59
26 26 26 26 27 27 28 28 28 29 30 30 31 32 32 33 34 35 36 37 38 40 41 42 42 43 44 46 47 47 48 49 50 51 52 53 54 55 57 58 59 60 62
25 25 26 26 26 27 27 27 28 29 29 30 30 31 32 33 33 35 36 38 39 40 41 42 42 44 45 46 47 48 49 50 51 52 54 55 56 57 59 60 62 64 65
25 25 25 26 27 27 27 27 28 28 29 30 30 31 32 33 34 35 37 38 40 41 42 42 44 45 46 47 48 49 50 51 53 54 55 56 58 60 62 63 65 66 67
25 25 25 26 26 27 27 27 28 29 29 29 30 31 32 34 35 37 38 39 40 41 42 43 44 46 47 48 49 51 52 53 54 56 57 59 61 63 65 66 67 68 70
25 25 25 26 26 26 27 27 27 28 29 29 30 31 33 34 35 37 38 39 40 41 42 44 45 47 48 50 51 52 54 55 56 58 60 62 64 66 68 69 70 71 72
25 25 25 26 26 26 27 27 27 28 30 30 32 33 34 35 36 37 38 40 41 42 44 45 47 48 49 51 53 54 56 57 58 60 63 65 67 69 70 72 74 75 75
26 25 25 25 26 26 27 28 28 30 31 32 33 34 35 36 37 38 39 40 42 43 45 46 47 49 50 52 54 56 58 59 61 63 66 68 70 71 73 75 76 77 76
25 25 26 26 26 27 28 28 30 31 32 33 34 35 36 37 37 39 40 42 43 45 46 47 48 50 52 54 56 58 61 63 65 67 69 71 72 73 74 75 76 76 75
26 26 26 27 28 28 29 30 31 32 33 34 35 36 36 37 38 40 41 42 44 45 46 48 50 51 53 56 58 61 63 66 68 70 72 73 74 74 75 75 74 73 72
27 27 27 28 29 29 30 31 32 33 33 34 35 36 37 38 39 40 42 43 44 46 48 49 51 53 55 58 61 64 67 69 71 73 74 74 74 74 74 73 72 70 68
28 29 29 29 30 30 31 32 33 34 34 35 36 36 37 39 40 41 42 44 45 47 49 51 54 56 58 61 65 68 70 72 74 75 75 74 74 73 72 70 68 66 62
29 30 30 31 31 32 32 33 34 34 35 36 36 37 38 39 40 42 43 45 47 49 51 54 56 59 62 65 67 70 72 74 75 75 75 74 72 70 69 67 63 60 57
Wind_Direction
259 261 262 264 266 269 270 271 272 274 276 277 277 278 279 279 280 281 282 283 284 285 285 285 285 286 287 286 286 287 288 288 287 288 289 290 290 292 292 293 293 292 291
260 261 263 265 266 268 270 271 271 273 274 276 276 277 278 279 280 280 281 281 282 283 284 285 285 286 286 286 286 287 287 288 288 289 289 290 291 291 293 293 294 294 293
261 262 264 265 266 268 269 270 271 272 274 275 275 276 277 278 279 279 279 280 280 281 283 284 284 285 285 286 286 287 288 289 289 289 290 291 291 291 292 293 294 294 293
262 263 265 265 266 267 268 270 271 272 272 273 274 274 275 276 277 277 278 278 279 280 281 283 283 284 285 286 286 287 289 289 290 291 292 293 293 292 292 293 293 294 293
263 264 265 266 267 268 268 269 271 271 271 272 272 273 274 275 275 276 277 278 278 279 280 282 283 283 285 285 286 288 289 290 292 293 294 294 294 295 294 294 294 294 293
264 265 266 267 268 269 269 270 270 270 270 270 271 272 272 273 274 275 276 276 277 278 279 281 282 283 284 285 287 289 290 291 292 293 294 295 296 296 296 295 294 294 294
266 266 267 268 268 269 269 270 270 270 270 270 270 270 271 272 273 274 274 275 276 277 278 280 282 283 285 286 289 291 291 292 293 294 295 296 297 297 297 296 295 295 295
266 267 268 268 269 269 269 270 269 269 269 269 269 269 270 271 271 272 273 274 276 277 279 281 282 285 286 288 290 291 292 293 295 296 297 297 297 297 297 297 296 296 295
267 268 269 269 269 269 270 270 269 269 269 268 268 269 269 270 271 271 272 274 276 278 279 281 284 286 287 289 290 291 293 295 296 297 298 298 298 298 298 298 297 297 296
267 268 269 269 269 269 269 269 269 268 268 268 268 268 268 269 270 271 273 274 276 278 280 282 284 287 289 290 291 292 293 296 297 297 298 299 298 298 298 298 298 298 297
268 269 269 269 270 270 270 269 269 269 268 268 268 268 269 271 272 273 274 275 277 279 281 283 286 288 289 291 292 293 295 296 297 298 298 299 299 299 299 299 299 298 298
269 269 269 269 270 270 270 270 269 269 269 269 270 270 271 272 273 274 275 277 279 280 281 284 286 288 290 292 293 294 296 297 297 298 299 299 300 300 300 300 299 299 299
271 270 269 269 269 269 269 269 269 269 270 270 271 272 272 273 274 275 276 278 279 281 283 285 288 289 291 293 294 295 296 297 298 299 300 300 300 300 300 300 300 300 300
272 271 270 269 269 269 269 269 270 270 271 271 271 272 273 274 275 277 279 280 281 282 284 287 289 290 292 293 294 295 296 298 299 300 300 301 301 301 301 301 301 301 301
271 271 270 270 269 269 269 270 271 271 272 273 273 274 275 275 277 278 279 281 282 284 286 288 290 291 292 294 295 296 297 298 299 300 300 301 301 302 302 302 302 302 302
271 270 269 269 268 269 270 271 272 273 274 275 276 276 277 278 279 280 281 282 284 286 288 289 291 292 294 295 296 297 298 299 299 300 300 301 302 302 302 303 303 303 303
269 269 268 268 269 270 271 272 273 274 276 278 278 278 279 279 280 281 282 284 285 287 288 290 292 293 294 295 296 297 298 299 300 300 301 302 302 302 303 303 303 304 304
267 267 268 268 269 271 273 274 275 276 278 279 280 280 281 281 281 283 284 285 286 288 289 291 292 294 295 295 296 297 298 299 300 301 302 302 303 303 303 303 304 304 304
265 267 268 269 270 272 274 276 276 277 278 280 281 282 282 283 284 285 286 286 288 289 290 292 293 294 295 296 296 297 298 300 301 302 302 303 303 303 303 304 305 305 304
264 267 268 270 271 273 275 276 277 279 279 280 281 282 283 285 286 286 287 288 289 290 291 293 294 295 296 296 297 298 299 300 301 302 303 303 304 304 304 305 305 305 304
263 266 269 271 272 274 275 277 278 280 280 281 282 284 285 286 286 287 288 289 290 291 292 293 295 296 297 297 298 299 300 301 302 303 304 304 304 305 305 305 305 304 304
262 265 269 271 273 274 276 278 280 281 282 283 284 285 285 286 287 288 289 290 291 292 293 294 296 297 297 298 299 300 301 302 303 304 304 305 305 305 305 305 304 304 305
263 266 270 272 274 275 277 279 281 283 283 284 285 285 286 287 288 289 290 291 292 293 294 296 297 298 299 300 300 301 303 303 304 305 305 305 305 305 305 305 305 305 305
264 267 271 274 276 277 278 281 282 284 285 286 286 287 288 288 289 290 291 292 293 295 296 297 298 299 300 301 302 303 304 304 305 305 306 306 305 305 305 305 305 305 304
266 269 272 275 277 278 280 282 284 285 286 287 288 288 289 290 290 291 293 294 295 297 298 299 300 301 302 302 303 304 305 305 306 306 306 306 305 305 305 305 305 304 304
267 270 273 275 277 279 281 283 285 286 287 288 289 290 291 292 293 294 295 296 297 298 299 300 302 302 303 304 304 305 306 306 306 306 307 306 306 306 305 305 305 304 304
Height
5792 5793 5794 5796 5797 5797 5797 5799 5799 5798 5798 5798 5798 5797 5796 5796 5795 5794 5793 5791 5790 5788 5787 5785 5784 5783 5781 5779 5778 5776 5774 5773 5771 5769 5767 5765 5763 5760 5757 5755 5752 5750 5747
5783 5784 5786 5787 5788 5789 5789 5790 5790 5790 5790 5790 5789 5789 5788 5788 5787 5786 5784 5783 5782 5780 5779 5778 5776 5775 5773 5772 5770 5768 5766 5764 5763 5761 5759 5757 5755 5752 5748 5745 5742 5739 5736
5773 5775 5777 5778 5780 5780 5780 5780 5781 5781 5781 5781 5780 5780 5779 5779 5778 5777 5776 5775 5773 5772 5771 5769 5768 5767 5765 5763 5762 5760 5758 5756 5754 5751 5750 5747 5745 5743 5739 5735 5732 5729 5726
5764 5766 5768 5769 5770 5771 5771 5771 5771 5772 5772 5772 5771 5771 5771 5770 5769 5768 5767 5766 5765 5764 5762 5761 5759 5758 5757 5755 5753 5751 5749 5747 5745 5742 5739 5737 5734 5732 5730 5726 5722 5718 5715
5755 5757 5758 5759 5760 5761 5761 5762 5762 5762 5762 5762 5762 5762 5761 5761 5760 5759 5758 5757 5756 5755 5754 5752 5751 5749 5748 5746 5744 5742 5740 5737 5735 5732 5729 5726 5723 5720 5718 5716 5712 5708 5703
5745 5747 5748 5749 5750 5751 5751 5752 5752 5752 5753 5753 5752 5752 5752 5751 5751 5750 5749 5748 5747 5746 5745 5743 5742 5741 5739 5737 5735 5733 5730 5727 5725 5722 5719 5716 5713 5709 5706 5704 5701 5697 5693
5735 5737 5738 5739 5740 5741 5742 5742 5742 5743 5743 5743 5743 5742 5742 5742 5742 5741 5740 5739 5739 5737 5736 5735 5733 5732 5730 5728 5725 5723 5720 5718 5715 5712 5708 5705 5701 5698 5695 5692 5689 5686 5682
5726 5727 5728 5729 5731 5731 5732 5732 5732 5733 5733 5733 5733 5733 5733 5733 5733 5732 5731 5731 5730 5729 5727 5726 5724 5723 5721 5718 5716 5713 5711 5708 5704 5701 5698 5694 5690 5686 5683 5679 5676 5674 5671
5717 5718 5719 5720 5721 5722 5722 5723 5723 5723 5724 5724 5723 5724 5724 5724 5723 5723 5722 5722 5721 5719 5718 5717 5715 5713 5711 5709 5706 5704 5701 5698 5694 5690 5687 5683 5679 5675 5671 5667 5663 5661 5658
5708 5709 5710 5711 5712 5712 5713 5713 5714 5714 5714 5714 5714 5715 5715 5714 5714 5714 5713 5713 5712 5710 5709 5708 5706 5704 5702 5699 5697 5694 5690 5687 5683 5680 5676 5672 5667 5663 5659 5655 5651 5647 5644
5700 5701 5702 5703 5703 5704 5704 5705 5705 5705 5706 5706 5706 5706 5706 5706 5705 5705 5704 5704 5703 5701 5700 5698 5697 5694 5692 5689 5686 5683 5680 5677 5673 5669 5664 5660 5656 5651 5647 5643 5638 5634 5629
5692 5693 5694 5695 5695 5695 5696 5696 5697 5697 5697 5697 5697 5697 5697 5697 5697 5696 5695 5695 5694 5692 5691 5689 5687 5685 5682 5679 5676 5673 5669 5665 5661 5657 5653 5648 5644 5639 5634 5630 5625 5620 5615
5685 5686 5686 5687 5687 5687 5688 5688 5688 5689 5689 5689 5689 5689 5689 5689 5688 5687 5687 5686 5684 5683 5681 5679 5677 5675 5672 5669 5665 5662 5658 5654 5650 5645 5641 5636 5631 5627 5622 5617 5612 5606 5601
5677 5678 5679 5679 5679 5680 5680 5680 5680 5681 5681 5681 5681 5681 5680 5680 5679 5678 5678 5676 5675 5674 5672 5670 5667 5664 5661 5658 5654 5651 5647 5643 5638 5634 5629 5624 5619 5614 5608 5603 5597 5592 5586
5670 5671 5671 5671 5672 5672 5672 5672 5673 5673 5673 5673 5673 5672 5672 5671 5670 5670 5669 5667 5666 5664 5662 5660 5657 5654 5651 5647 5643 5639 5635 5631 5626 5621 5616 5611 5605 5600 5594 5588 5582 5576 5570
5662 5663 5663 5664 5664 5664 5665 5665 5665 5665 5665 5664 5664 5664 5663 5662 5662 5661 5659 5658 5656 5654 5652 5649 5646 5643 5640 5636 5632 5628 5624 5619 5614 5609 5604 5598 5592 5586 5580 5573 5567 5560 5552
5655 5656 5656 5656 5657 5657 5657 5657 5657 5657 5657 5656 5656 5655 5655 5654 5653 5651 5650 5648 5646 5644 5642 5639 5636 5632 5628 5624 5620 5616 5612 5607 5602 5596 5590 5585 5578 5571 5565 5558 5551 5543 5534
5647 5648 5648 5649 5649 5649 5649 5649 5649 5649 5649 5648 5648 5647 5646 5645 5643 5642 5640 5638 5636 5634 5631 5628 5624 5621 5617 5612 5608 5603 5599 5594 5588 5582 5576 5570 5563 5555 5548 5542 5535 5527 5518
5640 5640 5641 5641 5642 5642 5641 5641 5641 5641 5640 5640 5639 5638 5637 5636 5634 5632 5630 5628 5626 5623 5620 5617 5613 5609 5605 5600 5595 5590 5586 5581 5575 5569 5562 5554 5547 5540 5531 5524 5517 5509 5500
5632 5633 5633 5634 5634 5634 5634 5633 5633 5633 5632 5632 5631 5629 5628 5626 5624 5622 5620 5618 5615 5612 5609 5606 5601 5597 5593 5587 5582 5577 5572 5567 5562 5555 5547 5539 5530 5522 5513 5504 5496 5488 5480
5625 5625 5626 5626 5626 5626 5626 5625 5625 5625 5624 5623 5621 5620 5619 5617 5615 5612 5610 5607 5605 5601 5598 5594 5590 5585 5580 5574 5569 5563 5557 5551 5546 5539 5532 5523 5513 5504 5495 5485 5475 5466 5458
5617 5618 5618 5618 5618 5618 5618 5617 5617 5616 5615 5614 5612 5611 5609 5607 5604 5602 5599 5597 5594 5590 5586 5582 5577 5572 5567 5561 5555 5548 5542 5535 5529 5522 5514 5505 5496 5486 5476 5466 5456 5446 5437
5609 5610 5610 5610 5610 5610 5610 5609 5608 5607 5606 5604 5603 5601 5599 5596 5594 5592 5589 5586 5582 5578 5574 5570 5565 5559 5553 5547 5540 5533 5526 5518 5511 5504 5495 5486 5477 5467 5457 5447 5436 5426 5417
5601 5602 5602 5602 5602 5602 5601 5600 5599 5598 5596 5595 5593 5591 5589 5586 5584 5581 5577 5574 5570 5566 5562 5557 5552 5546 5540 5532 5525 5518 5510 5501 5493 5484 5476 5467 5457 5447 5437 5428 5418 5408 5399
5593 5593 5594 5594 5593 5593 5592 5591 5590 5588 5587 5585 5583 5581 5578 5576 5573 5570 5566 5562 5558 5553 5549 5543 5538 5532 5526 5517 5509 5500 5492 5483 5474 5464 5456 5447 5437 5428 5418 5409 5400 5391 5383
5585 5585 5585 5585 5585 5584 5583 5582 5580 5579 5577 5575 5573 5570 5568 5565 5562 5559 5555 5550 5546 5541 5535 5529 5523 5516 5509 5501 5492 5483 5474 5463 5453 5443 5435 5426 5417 5407 5399 5390 5382 5374 5367